VIASAT-3

Last updated on Mon Oct 20 2025 00:02:51 GMT+0000 (Coordinated Universal Time)

1 56370U 23060A 25292.21425733 -.00000188 00000+0 00000+0 0 9995 2 56370 0.0229 269.2782 0000415 184.4471 282.4494 1.00272367 9012
UTC large
Height (km)
Speed (km/s)
/
Latitude / Longitude
Inclination (degrees)
Orbital Period (minutes)
Azimuth
Elevation
Range (km)
Doppler Factor

Next 0 passes for location: London (51.5072 / 0.1276)

Sorry there are no passes over London.